Probability
0 0 0 0 0 0 0 0 0 0 0 0 0 0 0 0 0 0 0 0 0 0 0 0 0 0 0 0 0 0 0 0 0 0 0 0 0 0 0 0 0 0 0 0
0 0 0 0 0 0 0 0 0 0 0 0 0 0 0 0 0 0 0 0 0 0 0 0 0 0 0 0 0 0 0 0 0 0 0 0 0 0 0 0 0 0 0 0
0 0 0 0 0 0 0 0 0 0 0 0 0 0 0 0 0 0 0 0 0 0 0 0 0 0 0 0 0 0 0 0 0 0 0 0 0 0 0 0 0 0 0 0
0 0 0 0 0 0 0 0 0 0 0 0 0 0 0 0 0 0 0 0 0 0 0 0 0 0 0 0 0 0 0 0 0 0 0 0 0 0 0 0 0 0 0 0
0 0 0 0 0 0 0 0 0 0 0 0 0 0 0 0 0 0 0 0 0 0 0 0 0 0 0 0 0 0 0 0 0 0 0 0 0 0 0 0 0 0 0 0
0 0 0 0 0 0 0 0 0 0 0 0 0 0 0 0 0 0 0 0 0 0 0 0 0 0 0 0 0 0 0 0 0 0 0 0 0 0 0 0 0 0 0 0
0 0 0 0 0 0 0 0 0 0 0 0 0 0 0 0 0 0 0 0 0 0 0 0 0 0 0 0 0 0 0 0 0 0 0 0 0 0 0 0 0 0 0 0
0 0 0 0 0 0 0 0 0 0 0 0 0 0 0 0 0 0 0 0 0 0 0 0 0 0 0 0 0 0 0 0 0 0 0 0 0 0 0 0 0 0 0 0
0 0 0 0 0 0 0 0 0 0 0 0 0 0 0 0 0 0 0 0 0 0 0 0 0 0 0 0 0 0 0 0 0 0 0 0 0 0 0 0 0 0 0 0
0 0 0 0 0 0 0 0 0 0 0 0 0 0 0 0 0 0 0 0 0 0 0 0 0 0 0 0 0 0 0 0 0 0 0 0 0 0 0 0 0 0 0 0
0 0 0 0 0 0 0 0 0 0 0 0 0 0 0 0 0 0 0 0 0 0 0 0 0 0 0 0 0 0 0 0 0 0 0 0 0 0 0 0 0 0 0 0
0 0 0 0 0 0 0 0 0 0 0 0 0 0 0 0 0 0 0 0 0 0 0 0 0 0 0 0 0 0 0 0 0 0 0 0 0 0 0 0 0 0 0 0
0 0 0 0 0 0 0 0 0 0 0 0 0 0 0 0 0 0 0 0 0 0 0 0 0 0 0 0 0 0 0 0 0 0 0 0 0 0 0 0 0 0 0 0
0 0 0 0 0 0 0 0 0 0 0 0 0 0 0 0 0 0 0 0 0 0 0 0 0 0 0 0 0 0 0 0 0 0 0 0 0 0 0 0 0 0 0 0
0 0 0 0 0 0 0 0 0 0 0 0 0 0 0 0 0 0 0 0 0 0 0 0 0 0 0 0 0 0 0 0 0 0 0 0 0 0 0 0 0 0 0 0
0 0 0 0 0 0 0 0 0 0 0 0 0 0 0 0 0 0 0 0 0 0 0 0 0 0 0 0 0 0 0 0 0 0 0 0 0 0 0 0 0 0 0 0
0 0 0 0 0 0 0 0 0 0 0 0 0 0 0 0 0 0 0 0 0 0 0 0 0 0 0 0 0 0 0 0 0 0 0 0 0 0 0 0 0 0 0 0
0 0 0 0 0 0 0 0 0 0 0 0 0 0 0 0 0 0 0 0 0 0 0 0 0 0 0 0 0 0 0 0 0 0 0 0 0 0 0 0 0 0 0 0
0 0 0 0 0 0 0 0 0 0 0 0 0 0 0 0 0 0 0 0 0 0 0 0 0 0 0 0 0 0 0 0 0 0 0 0 0 0 0 0 0 0 0 0
0 0 0 0 0 0 0 0 0 0 0 0 0 0 0 0 0 0 0 0 0 0 0 0 0 0 0 0 0 0 0 0 0 0 0 0 0 0 0 0 0 0 0 0
0 0 0 0 0 0 0 0 0 0 0 0 0 0 0 0 0 0 0 0 0 0 0 0 0 0 0 0 0 0 0 0 0 0 0 0 0 0 0 0 0 0 0 0
0 0 0 0 0 0 0 0 0 0 0 0 0 0 0 0 0 0 0 0 0 0 0 0 0 0 0 0 0 0 0 0 0 0 0 0 0 0 0 0 0 0 0 0
0 0 0 0 0 0 0 0 0 0 0 0 0 0 0 0 0 0 0 0 0 0 0 0 0 0 0 0 0 0 0 0 0 0 0 0 0 0 0 0 0 0 0 0
0 0 0 0 0 0 0 0 0 0 0 0 0 0 0 0 0 0 0 0 0 0 0 0 0 0 0 0 0 0 0 0 0 0 0 0 0 0 0 0 0 0 0 0
0 0 0 0 0 0 0 0 0 0 0 0 0 0 0 0 0 0 0 0 0 0 0 0 0 0 0 0 0 0 0 0 0 0 0 0 0 0 0 0 0 0 0 0
0 0 0 0 0 0 0 0 0 0 0 0 0 0 0 0 0 0 0 0 0 0 0 0 0 0 0 0 0 0 0 0 0 0 0 0 0 0 0 0 0 0 0 0
0 0 0 0 0 0 0 0 0 0 0 0 0 0 0 0 0 0 0 0 0 0 0 0 0 0 0 0 0 0 0 0 0 0 0 0 0 0 0 0 0 0 0 0
Wind_Speed
11 11 10 11 12 13 16 16 14 14 15 14 11 8 7 6 5 4 4 5 5 5 5 4 4 3 3 2 2 2 2 2 1 1 1 1 1 1 1 1 1 1 1 1
10 11 11 13 14 15 16 16 18 17 19 14 13 9 7 6 6 6 6 6 5 5 5 5 5 4 3 3 3 3 2 2 1 1 1 1 1 1 1 1 1 2 1 1
8 8 7 12 14 16 15 15 14 18 18 11 12 11 9 8 8 8 7 6 6 5 5 5 4 4 4 3 2 3 2 1 1 1 1 0 1 1 1 1 2 1 1 2
5 4 12 10 8 12 16 16 14 13 12 11 11 11 9 6 6 7 6 5 5 4 3 2 2 2 3 3 3 2 2 1 1 1 0 0 1 0 1 1 1 1 2 2
5 8 11 9 7 7 9 13 10 12 12 10 10 9 8 4 4 5 4 3 3 2 2 2 2 3 4 4 3 2 2 1 1 1 1 1 0 1 1 1 1 1 2 2
7 7 9 8 5 5 7 12 6 7 9 9 7 8 7 3 2 2 1 1 0 0 1 2 2 3 4 4 4 3 2 2 1 1 1 1 1 1 1 1 1 1 2 2
11 10 9 7 5 2 6 7 5 5 7 7 6 7 6 4 2 1 1 1 1 1 1 1 2 3 3 3 3 2 2 1 1 1 1 1 1 1 1 1 2 2 2 2
8 10 11 3 1 3 4 4 5 5 6 6 7 6 5 4 3 2 2 1 1 1 1 1 2 3 3 2 1 1 2 2 2 1 1 1 1 1 1 2 2 1 1 2
6 7 4 1 2 2 2 4 5 5 6 6 6 6 5 4 3 3 2 2 2 2 2 2 2 2 2 1 1 2 2 2 1 1 1 1 2 1 1 1 1 0 0 1
7 7 5 5 4 3 3 4 5 5 6 5 6 5 5 3 3 2 2 2 2 2 2 2 2 3 2 2 2 2 2 2 2 2 2 1 1 1 1 1 0 0 0 1
10 8 8 7 5 5 5 5 5 5 5 5 5 5 4 3 3 2 1 1 1 1 0 1 2 2 2 2 1 1 2 2 1 1 2 1 1 0 1 0 1 1 1 1
11 7 7 7 4 3 4 5 4 5 5 5 4 5 4 3 2 1 0 1 1 1 0 1 1 1 2 1 1 1 1 1 1 1 1 1 1 1 2 1 1 1 2 2
10 7 7 7 5 3 3 4 4 4 4 4 4 3 3 3 2 0 1 1 1 1 1 1 1 1 2 1 1 1 1 1 1 1 1 1 1 1 0 2 2 2 3 3
4 4 5 5 4 3 3 3 3 3 3 3 3 3 2 1 1 0 0 0 1 1 1 1 1 1 2 1 1 0 0 1 1 1 1 1 1 1 1 1 1 2 3 4
4 4 5 3 3 2 2 2 2 3 3 3 2 2 1 1 1 1 1 1 2 1 1 1 1 1 2 1 0 0 0 0 0 0 0 1 1 1 1 1 1 1 2 3
4 3 2 3 3 3 2 2 3 4 3 2 2 2 2 1 1 1 1 1 1 1 1 1 1 1 1 1 1 0 0 1 1 1 1 1 1 1 1 1 1 1 2 2
2 4 3 4 5 4 4 3 3 4 3 2 2 1 1 1 1 1 1 1 1 1 1 1 1 1 1 1 0 0 0 1 1 1 1 1 1 1 1 1 1 2 2 3
4 4 4 4 4 4 4 3 2 3 3 2 1 1 1 1 2 2 1 1 1 2 2 2 1 1 1 1 1 0 0 1 1 1 1 1 1 1 1 1 2 2 2 3
1 2 2 2 2 3 3 3 3 2 2 1 1 2 2 2 1 1 1 1 0 1 2 2 2 2 2 2 1 0 0 0 0 0 0 1 1 1 1 2 2 2 2 2
2 1 1 1 1 1 2 2 2 2 1 1 1 1 1 1 0 1 1 1 1 1 0 1 1 1 1 1 1 1 0 0 0 0 1 1 1 2 2 2 2 2 3 3
1 1 1 1 2 2 1 1 1 2 1 1 1 2 2 1 1 1 1 1 1 1 1 1 1 1 1 1 1 1 1 1 0 1 1 1 2 2 2 2 2 3 3 3
1 1 2 2 1 2 2 1 1 1 1 1 1 1 1 1 0 0 1 1 0 1 1 1 1 1 1 1 0 0 0 1 1 1 1 1 2 2 2 2 3 3 3 3
1 1 2 2 2 2 2 2 1 1 1 1 1 1 1 1 1 1 1 1 0 1 1 1 2 2 2 1 1 1 1 1 1 1 2 2 2 2 2 3 3 3 3 4
1 1 2 1 1 1 2 2 1 1 1 1 1 1 1 0 1 0 0 0 1 1 1 1 3 2 2 1 1 1 1 1 1 2 2 2 2 2 3 3 4 4 4 5
2 2 2 1 1 2 2 1 1 0 0 0 1 1 0 0 1 1 0 1 1 1 1 2 3 2 1 1 1 1 1 2 2 2 2 2 3 3 3 4 4 4 4 5
2 2 2 2 2 1 1 1 1 1 1 1 1 1 0 0 0 0 0 0 1 1 1 1 1 1 1 1 1 2 2 2 2 2 3 3 4 4 4 4 5 5 5 5
1 1 1 1 1 1 1 1 1 1 1 1 1 1 0 0 0 0 0 1 1 1 1 1 1 1 1 1 2 2 2 2 3 3 3 3 4 4 5 5 5 5 5 5
Wind_Direction
262 275 274 264 254 241 238 240 247 255 257 261 262 260 256 253 251 246 241 235 222 218 214 203 200 203 194 189 178 164 166 175 180 127 76 62 46 28 17 10 8 357 355 2
263 265 267 266 258 253 248 245 248 257 261 261 267 266 260 250 248 256 251 245 240 230 216 210 208 201 196 196 182 163 170 176 134 97 78 65 30 16 32 26 24 26 20 22
257 260 274 255 240 242 246 245 245 251 257 269 267 262 256 250 241 239 242 238 237 236 225 217 210 194 189 184 149 146 153 144 119 113 114 68 46 39 39 25 31 37 31 39
258 252 242 243 233 238 246 250 251 256 263 262 265 266 255 243 243 248 247 240 237 237 231 216 189 171 159 140 141 148 142 129 110 117 133 72 72 57 30 31 30 25 27 32
232 240 257 262 249 237 246 255 256 263 268 270 271 273 265 267 257 253 254 239 223 216 210 186 170 159 150 146 147 150 158 152 143 147 156 125 95 18 14 22 27 28 30 31
233 239 240 246 252 258 253 256 271 280 284 288 294 273 272 302 298 297 326 342 310 131 108 124 139 131 144 157 158 173 182 176 154 150 164 165 153 51 29 37 36 36 27 28
235 246 253 257 269 296 231 256 302 298 296 297 280 273 288 314 329 324 311 314 350 85 118 127 113 123 142 153 178 177 146 135 118 114 129 124 88 73 73 66 58 45 30 19
221 236 248 261 245 213 254 303 318 321 312 304 298 304 319 327 326 347 358 8 30 48 53 61 98 130 145 163 135 91 114 117 108 99 102 101 95 70 70 83 81 53 32 13
218 229 251 273 244 264 293 292 302 312 314 307 299 299 308 314 323 334 356 4 31 66 57 37 60 115 147 118 85 103 114 126 130 117 99 101 114 106 82 85 104 79 27 342
261 263 270 282 288 300 309 290 299 302 304 306 294 295 304 307 321 335 348 359 31 62 69 27 29 61 74 63 71 119 143 148 141 138 112 91 96 114 131 135 117 29 333 318
260 268 279 267 272 290 303 308 308 310 313 308 296 294 297 293 296 301 325 360 41 76 127 11 29 41 43 58 91 135 155 147 146 140 128 128 107 121 160 187 188 199 234 258
255 254 255 269 286 303 296 294 298 301 308 316 304 292 292 281 283 281 223 77 71 64 77 40 43 26 12 31 118 154 156 142 142 132 124 128 123 45 27 23 26 9 349 333
256 267 260 272 286 296 292 296 300 290 288 302 310 300 286 283 292 348 98 100 114 101 84 75 59 29 358 347 74 140 169 164 167 162 159 155 153 154 344 1 16 12 359 347
263 276 269 271 283 304 304 311 321 322 324 319 319 323 319 311 344 91 136 128 95 98 96 94 83 12 352 356 49 107 157 175 189 195 187 180 186 208 210 234 301 319 339 342
255 249 254 279 301 313 329 339 328 311 322 334 342 338 328 300 276 291 353 64 95 100 86 65 30 339 349 6 23 159 165 167 185 199 203 195 191 203 222 237 257 287 319 333
273 273 263 261 265 276 287 279 273 279 296 311 323 324 325 326 329 12 44 88 129 186 245 260 294 333 1 3 357 132 163 154 158 174 187 193 186 189 216 241 264 283 290 296
233 256 258 261 264 271 267 261 259 268 280 285 290 306 339 23 25 9 4 7 18 356 326 303 312 355 4 354 349 291 171 160 145 151 195 208 211 221 239 246 254 267 271 283
235 244 244 245 257 269 275 276 265 262 264 272 274 224 195 212 245 263 281 11 28 10 349 339 349 21 20 357 345 326 211 177 169 180 200 220 245 253 256 263 268 273 283 295
302 278 280 277 270 263 262 270 275 277 281 268 223 221 229 236 243 237 142 114 102 304 316 336 345 23 360 333 343 349 38 159 169 196 208 227 256 256 254 257 265 272 279 282
343 335 332 326 325 283 269 279 287 291 289 274 240 227 244 257 208 153 152 193 253 268 288 340 351 355 333 314 349 353 331 283 236 252 250 230 235 246 250 258 266 271 273 272
313 324 335 338 332 324 302 291 286 288 290 257 228 235 233 226 183 170 167 274 312 31 39 15 3 340 335 335 342 340 312 286 261 250 254 254 253 254 255 259 267 268 269 273
284 299 308 312 317 318 320 316 299 289 285 268 258 226 163 162 165 326 298 249 254 34 21 350 340 323 318 330 329 299 280 271 270 266 261 256 255 261 266 269 272 271 266 268
257 258 271 279 278 289 314 319 309 295 276 250 228 208 207 225 223 209 281 280 338 327 343 318 308 314 332 340 313 286 277 275 274 270 265 265 264 264 268 272 273 274 274 271
248 255 258 265 264 269 287 297 303 294 279 280 254 224 195 214 300 320 51 71 345 332 335 301 302 319 342 345 326 304 288 285 286 286 283 279 273 270 270 271 274 275 273 274
237 244 241 235 245 249 248 262 275 282 326 339 325 288 258 220 211 268 314 275 285 314 310 298 306 322 334 309 298 294 289 281 279 279 277 276 274 273 272 272 272 275 275 275
227 236 241 241 241 240 236 225 234 248 240 278 305 302 333 15 88 62 334 284 280 288 292 296 298 302 298 292 287 286 286 288 286 277 272 274 277 277 277 276 276 274 274 273
241 243 242 259 254 235 227 226 232 244 236 226 260 267 286 310 313 295 298 295 290 291 295 292 284 280 285 289 289 285 281 279 277 276 276 275 276 276 279 279 277 276 276 277